[[{"header":{"parameterUnit":"m.s-1","parameterCategory":1,"la1":30.2991,"la2":30.254,"lo1":-89.0895,"lo2":-89.0444,"dy":0.0017,"dx":0.0017,"nx":28,"ny":28,"refTime":"2023-11-10T09:00:00:Z","depth":0,"parameterNumber":2,"parameterNumberName":"U-component_of_WINDS"},"data":[0,0,0,0,0,0,0,0,0,0,0,0,0,0,0,0,0,0,0,0,0,0,0,0,0,0,0,0,0,0,0,0,0,0,0,0,0,0,0,0,0,0,0,0,0,0,0,0,0,0,0,0,0,0,0,0,0,0,-2.1982,-2.1983,0,-2.2089,-2.209,-2.2091,-2.2068,-2.2066,-2.2064,-2.2062,-2.2173,-2.2178,-2.2182,0,0,0,0,0,0,0,0,0,0,0,0,0,-2.1759,-2.1764,-2.1982,-2.1983,-2.1984,-2.2089,-2.209,-2.2091,-2.2069,-2.2066,-2.2064,-2.2062,-2.2172,-2.2177,-2.2183,0,0,0,0,0,0,0,0,0,0,0,0,0,-2.186,-2.1765,-2.1981,-2.1986,-2.1987,-2.2088,-2.209,-2.2092,-2.2069,-2.2066,-2.2063,-2.206,-2.217,-2.2177,-2.2184,-2.2288,0,0,-2.2206,-2.2209,0,0,0,0,0,0,0,0,-2.1854,-2.1868,-2.1984,-2.1985,-2.1987,-2.2062,-2.2052,-2.2158,-2.207,-2.2038,-2.2062,-2.2059,-2.2139,-2.2148,-2.2175,-2.2293,-2.2298,-2.2206,-2.2211,-2.2214,-2.2216,0,0,0,0,0,0,0,-2.1847,-2.1864,-2.2024,-2.1985,-2.1988,-2.1983,-2.1994,-2.2072,-2.2104,-2.2041,-2.2039,-2.2052,-2.2139,-2.2168,-2.2177,-2.2299,-2.2206,-2.2213,-2.2217,-2.222,-2.251,-2.2514,0,0,0,0,0,0,-2.1839,-2.1858,-2.2021,-2.2027,-2.1912,-2.1989,-2.2001,-2.2041,-2.2103,-2.2109,-2.2054,-2.2051,-2.2157,-2.2169,-2.2181,-2.2309,-2.2214,-2.2221,-2.2225,-2.2507,-2.2511,-2.2515,0,0,0,0,0,0,-2.1834,-2.1853,-2.2016,-2.1942,-2.1963,-2.1996,-2.2041,-2.2045,-2.2074,-2.2113,-2.2119,-2.2078,-2.2155,-2.2171,-2.2262,-2.2312,-2.2224,-2.223,-2.2503,-2.2508,-2.2513,-2.2563,0,0,0,0,0,0,-2.1828,-2.1852,-2.1891,-2.1943,-2.1967,-2.2095,-2.2044,-2.2049,-2.2086,-2.2082,-2.2137,-2.2143,-2.2154,-2.2251,-2.2269,-2.232,-2.2236,-2.2499,-2.2505,-2.2511,-2.2557,-2.257,-2.258,0,0,0,0,0,-2.182,-2.1901,-2.1893,-2.1913,-2.2017,-2.2098,-2.2111,-2.2122,-2.209,-2.2131,-2.2156,-2.2142,-2.2303,-2.2261,-2.2281,-2.2335,-2.2496,-2.2504,-2.2511,-2.2552,-2.2567,-2.258,0,0,0,0,0,0,-2.1854,-2.1908,-2.19,-2.2,-2.2045,-2.2094,-2.2145,-2.2137,-2.2191,-2.2185,-2.2196,-2.2209,-2.2302,-2.2327,-2.2279,-2.244,-2.2395,-2.2407,-2.242,-2.2434,-2.2445,-2.2438,-2.2242,0,0,0,0,0,-2.1873,-2.1934,-2.1978,-2.2063,-2.2085,-2.2111,-2.2147,-2.2151,-2.2198,-2.2217,-2.2249,-2.2295,-2.2356,-2.2396,-2.2455,-2.2561,-2.2573,-2.2608,-2.2619,-2.2628,-2.2639,-2.2698,-2.2715,-2.254,-2.254,-2.254,0,0,-2.1914,-2.1951,-2.1989,-2.2071,-2.2105,-2.2169,-2.2127,-2.2196,-2.2244,-2.2227,-2.2315,-2.2341,-2.2393,-2.2492,-2.2537,-2.2516,-2.269,-2.2638,-2.2645,-2.2651,-2.2708,-2.2725,-2.2739,-2.2545,-2.2544,-2.2543,0,0,-2.202,-2.2054,-2.2129,-2.2164,-2.2218,-2.2235,-2.2253,-2.2304,-2.232,-2.2408,-2.2398,-2.2455,-2.256,-2.2598,-2.2631,-2.2753,-2.2743,-2.2772,-2.2831,-2.2889,-2.2903,-2.2915,-2.2961,-2.2976,-2.2782,-2.2782,-2.2782,0,-2.2064,-2.2159,-2.2168,-2.2239,-2.2276,-2.2263,-2.234,-2.2374,-2.2444,-2.247,-2.2445,-2.2578,-2.2612,-2.2721,-2.2751,-2.2777,-2.2799,-2.2766,-2.29,-2.2913,-2.2924,-2.2968,-2.2984,-2.2786,-2.2785,-2.2785,-2.2785,0,-2.2211,-2.2277,-2.2331,-2.2399,-2.2442,-2.2515,-2.2536,-2.2579,-2.2579,-2.2599,-2.269,-2.2731,-2.2798,-2.2824,-2.2825,-2.2934,-2.2919,-2.2897,-2.2853,-2.2944,-2.2985,-2.3002,-2.279,-2.2789,-2.2788,-2.2787,0,0,-2.2342,-2.2415,-2.2434,-2.2466,-2.2524,-2.2576,-2.2649,-2.2715,-2.2752,-2.28,-2.2863,-2.2953,-2.2933,-2.2971,-2.2976,-2.3027,-2.3123,-2.2999,-2.3,-2.3022,-2.3247,-2.3264,-2.3283,-2.3116,-2.3119,-2.3122,-2.3243,0,-2.2455,-2.2583,-2.2594,-2.271,-2.2772,-2.2762,-2.2826,-2.2869,-2.289,-2.2946,-2.2969,-2.3033,-2.3002,-2.3025,-2.3074,-2.3101,-2.3169,-2.3092,-2.3175,-2.3178,-2.3164,-2.3304,-2.3323,-2.3435,-2.3259,-2.3262,-2.3264,0,-2.2603,-2.2657,-2.278,-2.2831,-2.2857,-2.2914,-2.2976,-2.303,-2.3079,-2.3091,-2.3134,-2.3132,-2.3209,-2.3161,-2.3267,-2.3215,-2.3249,-2.3268,-2.3272,-2.3281,-2.3227,-2.3319,-2.3472,-2.3489,-2.3289,-2.3287,-2.3285,0,-2.2689,-2.2791,-2.2878,-2.2905,-2.2967,-2.3007,-2.3035,-2.3081,-2.3121,-2.3175,-2.3201,-2.3263,-2.3298,-2.3346,-2.3363,-2.3326,-2.3469,-2.3422,-2.3482,-2.3482,-2.3513,-2.3511,-2.3675,-2.3533,-2.3533,-2.3533,-2.3533,0,-2.2814,-2.289,-2.2918,-2.2971,-2.3056,-2.3068,-2.3152,-2.3177,-2.3219,-2.3278,-2.3272,-2.3328,-2.3346,-2.3405,-2.3418,-2.3505,-2.352,-2.3532,-2.3535,-2.3534,-2.3532,-2.3558,-2.3551,-2.3537,-2.3536,-2.3536,-2.3535,0,-2.2924,-2.2945,-2.304,-2.309,-2.3105,-2.3166,-2.3209,-2.3261,-2.3281,-2.3356,-2.3375,-2.3406,-2.3476,-2.3497,-2.358,-2.3589,-2.3691,-2.3686,-2.3675,-2.3675,-2.3735,-2.3729,-2.3922,-2.3948,-2.3788,-2.3789,-2.379,0,-2.3003,-2.3061,-2.3118,-2.3158,-2.3187,-2.325,-2.329,-2.3304,-2.3347,-2.3408,-2.3454,-2.3522,-2.3578,-2.3689,-2.372,-2.3784,-2.3782,-2.3845,-2.3792,-2.3789,-2.3785,-2.3782,-2.3788,-2.3855,-2.3857,-2.3858,-2.3859,0,-2.3142,-2.315,-2.3208,-2.3271,-2.3319,-2.3369,-2.3417,-2.345,-2.3471,-2.3519,-2.359,-2.3634,-2.3719,-2.3788,-2.3853,-2.3882,-2.3876,-2.3876,-2.3893,-2.3893,-2.3885,-2.3892,-2.3704,-2.3872,-2.387,-2.3869,-2.3869,-2.3868,-2.324,-2.3292,-2.3341,-2.3406,-2.3444,-2.3489,-2.3541,-2.3568,-2.3627,-2.3698,-2.3703,-2.378,-2.383,-2.3917,-2.3949,-2.4011,-2.3993,-2.4018,-2.4024,-2.4031,-2.4036,-2.3874,-2.4023,-2.4022,-2.4022,-2.4022,-2.4021,0,-2.338,-2.3411,-2.3471,-2.3539,-2.3591,-2.3579,-2.3632,-2.3677,-2.3745,-2.3791,-2.3846,-2.3929,-2.3996,-2.4032,-2.4099,-2.4141,-2.414,-2.4159,-2.4156,-2.4164,-2.4048,-2.4027,-2.4159,-2.4159,-2.4159,-2.4159,-2.4159,-2.4159,-2.3459,-2.3546,-2.3561,-2.3667,-2.3698,-2.3774,-2.3805,-2.3847,-2.3885,-2.3977,-2.4033,-2.4056,-2.4099,-2.4169,-2.4231,-2.424,-2.4266,-2.4287,-2.4294,-2.4186,-2.4171,-2.4158,-2.4138,-2.4292,-2.4292,-2.4405,-2.4406,-2.4407]},{"header":{"parameterUnit":"m.s-1","parameterCategory":1,"la1":30.2991,"la2":30.254,"lo1":-89.0895,"lo2":-89.0444,"dy":0.0017,"dx":0.0017,"nx":28,"ny":28,"refTime":"2023-11-10T09:00:00:Z","depth":0,"parameterNumber":3,"parameterNumberName":"V-component_of_WINDS"},"data":[0,0,0,0,0,0,0,0,0,0,0,0,0,0,0,0,0,0,0,0,0,0,0,0,0,0,0,0,0,0,0,0,0,0,0,0,0,0,0,0,0,0,0,0,0,0,0,0,0,0,0,0,0,0,0,0,0,0,-4.4005,-4.4005,0,-4.3965,-4.3964,-4.3964,-4.3875,-4.3873,-4.3871,-4.3869,-4.383,-4.3831,-4.3831,0,0,0,0,0,0,0,0,0,0,0,0,0,-4.4007,-4.4007,-4.4005,-4.4005,-4.4004,-4.3965,-4.3964,-4.3964,-4.3875,-4.3873,-4.3871,-4.3868,-4.383,-4.383,-4.3831,0,0,0,0,0,0,0,0,0,0,0,0,0,-4.399,-4.4007,-4.4005,-4.3955,-4.395,-4.3965,-4.3964,-4.3964,-4.3875,-4.3873,-4.387,-4.3867,-4.3829,-4.383,-4.3831,-4.3892,0,0,-4.3834,-4.3835,0,0,0,0,0,0,0,0,-4.3991,-4.399,-4.3963,-4.3959,-4.3953,-4.3922,-4.395,-4.394,-4.3876,-4.3904,-4.3869,-4.3866,-4.3863,-4.3861,-4.3859,-4.389,-4.3889,-4.3834,-4.3835,-4.3835,-4.3836,0,0,0,0,0,0,0,-4.3993,-4.3992,-4.3989,-4.3963,-4.3957,-4.3935,-4.393,-4.3948,-4.3899,-4.3901,-4.3895,-4.3891,-4.386,-4.3859,-4.3858,-4.3888,-4.3834,-4.3835,-4.3836,-4.3836,-4.3966,-4.3969,0,0,0,0,0,0,-4.4001,-4.3993,-4.399,-4.3988,-4.3966,-4.3937,-4.3931,-4.3935,-4.3899,-4.3891,-4.3893,-4.3887,-4.3858,-4.3857,-4.3856,-4.3924,-4.3835,-4.3836,-4.3837,-4.3963,-4.3967,-4.397,0,0,0,0,0,0,-4.4001,-4.4001,-4.3992,-4.3989,-4.3986,-4.394,-4.3945,-4.3935,-4.3934,-4.3893,-4.3884,-4.3901,-4.3856,-4.3855,-4.3884,-4.3922,-4.3837,-4.3838,-4.396,-4.3964,-4.3968,-4.4062,0,0,0,0,0,0,-4.4002,-4.4002,-4.4024,-4.399,-4.3986,-4.402,-4.3947,-4.3937,-4.3936,-4.3927,-4.3898,-4.389,-4.3854,-4.3883,-4.3885,-4.3921,-4.3838,-4.3956,-4.3962,-4.3967,-4.4055,-4.4069,-4.4081,0,0,0,0,0,-4.4002,-4.4053,-4.4026,-4.4026,-4.4013,-4.4023,-4.4021,-4.3977,-4.3939,-4.3962,-4.3935,-4.3891,-4.3917,-4.3886,-4.3888,-4.3926,-4.3954,-4.396,-4.3967,-4.4049,-4.4066,-4.408,0,0,0,0,0,0,-4.4094,-4.4048,-4.4017,-4.4058,-4.4045,-4.4007,-4.4034,-4.3996,-4.3994,-4.3986,-4.3932,-4.3926,-4.3962,-4.3947,-4.3913,-4.3982,-4.3928,-4.3936,-4.3991,-4.4006,-4.4019,-4.4022,-4.3839,0,0,0,0,0,-4.4119,-4.413,-4.4089,-4.4129,-4.4124,-4.4081,-4.4083,-4.405,-4.4035,-4.4029,-4.4004,-4.3991,-4.3996,-4.4,-4.4003,-4.4053,-4.4045,-4.4079,-4.4092,-4.4103,-4.4109,-4.4134,-4.4149,-4.3991,-4.3991,-4.3991,0,0,-4.4171,-4.4147,-4.4157,-4.4147,-4.4133,-4.4146,-4.4076,-4.4093,-4.4102,-4.4031,-4.4057,-4.4038,-4.402,-4.406,-4.4076,-4.4048,-4.4151,-4.4111,-4.412,-4.412,-4.4142,-4.4157,-4.417,-4.3995,-4.3995,-4.3994,0,0,-4.4272,-4.4255,-4.4286,-4.4273,-4.4252,-4.4223,-4.4231,-4.4199,-4.4184,-4.4208,-4.4155,-4.4165,-4.4175,-4.4164,-4.416,-4.4257,-4.4216,-4.4259,-4.4325,-4.435,-4.4362,-4.4373,-4.4407,-4.4419,-4.4266,-4.4266,-4.4266,0,-4.4339,-4.4355,-4.4307,-4.4327,-4.4324,-4.426,-4.4292,-4.4282,-4.4263,-4.4263,-4.4231,-4.4242,-4.4225,-4.4261,-4.4284,-4.4283,-4.429,-4.4262,-4.4364,-4.4374,-4.4384,-4.4415,-4.4428,-4.4271,-4.4271,-4.427,-4.427,0,-4.4439,-4.4451,-4.4479,-4.4462,-4.4462,-4.4488,-4.4444,-4.445,-4.4418,-4.4392,-4.4418,-4.4395,-4.4392,-4.4398,-4.4367,-4.4429,-4.4412,-4.4374,-4.4318,-4.4405,-4.4433,-4.4445,-4.4279,-4.4277,-4.4275,-4.4274,0,0,-4.4597,-4.4552,-4.4563,-4.4554,-4.4526,-4.4535,-4.4558,-4.4553,-4.456,-4.4549,-4.4567,-4.4576,-4.454,-4.4535,-4.4502,-4.4524,-4.4601,-4.4482,-4.4481,-4.4505,-4.4668,-4.4697,-4.4712,-4.4574,-4.4577,-4.4578,-4.4669,0,-4.4691,-4.4726,-4.4683,-4.4728,-4.4739,-4.4678,-4.4698,-4.4683,-4.466,-4.4666,-4.464,-4.4647,-4.4599,-4.4596,-4.4614,-4.4588,-4.4633,-4.4581,-4.459,-4.4591,-4.4596,-4.4727,-4.4758,-4.4845,-4.468,-4.4682,-4.4684,0,-4.4805,-4.4799,-4.4845,-4.4813,-4.4816,-4.4834,-4.4827,-4.4833,-4.4815,-4.4797,-4.4791,-4.4751,-4.4772,-4.4718,-4.4745,-4.4711,-4.4712,-4.47,-4.4702,-4.4701,-4.4642,-4.4729,-4.4871,-4.4884,-4.4701,-4.47,-4.4698,0,-4.4914,-4.4918,-4.4945,-4.494,-4.4904,-4.4918,-4.4904,-4.4883,-4.4883,-4.4877,-4.4877,-4.4873,-4.4871,-4.487,-4.483,-4.4795,-4.4862,-4.4806,-4.4847,-4.4848,-4.4864,-4.4863,-4.5008,-4.4866,-4.4866,-4.4865,-4.4865,0,-4.5023,-4.5054,-4.4994,-4.5011,-4.5043,-4.4994,-4.5027,-4.5007,-4.4989,-4.5001,-4.4949,-4.4962,-4.4909,-4.4916,-4.4885,-4.4912,-4.4912,-4.4897,-4.4889,-4.4901,-4.4903,-4.4901,-4.4894,-4.4869,-4.4868,-4.4867,-4.4867,0,-4.5151,-4.5112,-4.5138,-4.5102,-4.5094,-4.5119,-4.5088,-4.5102,-4.5075,-4.5091,-4.5092,-4.505,-4.5056,-4.5016,-4.5015,-4.4994,-4.5035,-4.5017,-4.5041,-4.5035,-4.5079,-4.5075,-4.5227,-4.5244,-4.5092,-4.5093,-4.5095,0,-4.5223,-4.5245,-4.5211,-4.5215,-4.5203,-4.521,-4.521,-4.5162,-4.5164,-4.5145,-4.5162,-4.5163,-4.5161,-4.5173,-4.5143,-4.5141,-4.5121,-4.5175,-4.5121,-4.5133,-4.5122,-4.5121,-4.5122,-4.5186,-4.5188,-4.519,-4.5191,0,-4.5355,-4.5334,-4.5335,-4.533,-4.533,-4.5324,-4.5314,-4.532,-4.5269,-4.5273,-4.5278,-4.5277,-4.5275,-4.5276,-4.5269,-4.5254,-4.5214,-4.5208,-4.5217,-4.5231,-4.5244,-4.5237,-4.5071,-4.5205,-4.5203,-4.5202,-4.5201,-4.5201,-4.5456,-4.5472,-4.5451,-4.5453,-4.5441,-4.5433,-4.5444,-4.5418,-4.5421,-4.5415,-4.5387,-4.5397,-4.5378,-4.5363,-4.5353,-4.536,-4.5334,-4.5348,-4.5351,-4.5355,-4.5363,-4.5243,-4.5358,-4.5358,-4.5357,-4.5357,-4.5357,0,-4.5584,-4.5567,-4.557,-4.5558,-4.556,-4.5521,-4.5508,-4.5513,-4.5522,-4.5507,-4.5506,-4.5512,-4.5513,-4.5483,-4.548,-4.5491,-4.5473,-4.5492,-4.5491,-4.5488,-4.5386,-4.5378,-4.5507,-4.5507,-4.5507,-4.5507,-4.5507,-4.5507,-4.5651,-4.5677,-4.5654,-4.5672,-4.5655,-4.5663,-4.5659,-4.5651,-4.5639,-4.5647,-4.5648,-4.5628,-4.5607,-4.5602,-4.5602,-4.5593,-4.5594,-4.562,-4.5605,-4.551,-4.5495,-4.5481,-4.5473,-4.562,-4.5621,-4.5705,-4.5706,-4.5707]}]]